Location: Acheville
(50.3840°N, 2.8827°E)
Time: 14:38:23
(UTC+00:00)

CENTAUR R/B - Pass Details

Date: 24 October 2021
Orbit: 728 x 1459 km, 63.4° (Epoch: 26 November)

Event Time Altitude Azimuth Distance (km) Brightness Sun altitude
Rises 19:49:19 0° 312° (NW) 4,001 6.7 -30.7°
Reaches altitude 10° 19:51:58 10° 317° (NW) 3,138 5.8 -31.1°
Maximum altitude 19:59:33 55° 35° (NE) 1,581 3.4 -32.3°
Enters shadow 19:59:44 54° 40° (NE) 1,585 3.3 -32.3°
